Port Orchard, Washington, United States (98366)
Lat: 47.54N, Lon: 122.64W
Wx Zone: WAZ508
Local Info
Past Weather Observations for Wednesday, August 27, 2014

NOTE: This archive is for the closest National Weather Service station to Port Orchard. Information may differ from the station used for current weather conditions.

Click here for Long-term Archive

Time Weather Temperature Dewpoint Humidity Pressure Winds Precip Visibility
23:55
Clear
55°F / 13°C 55°F / 13°C 100% 30.09 in
(1019 mb)
S 3.5 mph
(S 6 kph)
- 10SM
23:35
Clear
57°F / 14°C 55°F / 13°C 94% 30.09 in
(1019 mb)
S 3.5 mph
(S 6 kph)
- 10SM
23:15
Clear
59°F / 15°C 55°F / 13°C 88% 30.09 in
(1019 mb)
Calm - 10SM
22:55
Clear
61°F / 16°C 57°F / 14°C 88% 30.09 in
(1019 mb)
S 4.6 mph
(S 7 kph)
- 10SM
22:35
Partly Cloudy
61°F / 16°C 57°F / 14°C 88% 30.09 in
(1019 mb)
Calm - 10SM
22:15
Partly Cloudy
63°F / 17°C 57°F / 14°C 83% 30.09 in
(1019 mb)
S 3.5 mph
(S 6 kph)
- 10SM
21:55
Mostly Cloudy
63°F / 17°C 57°F / 14°C 83% 30.09 in
(1019 mb)
Calm - 10SM
21:35
Partly Cloudy
64°F / 18°C 59°F / 15°C 83% 30.06 in
(1018 mb)
Calm - 10SM
21:15
Mostly Cloudy
66°F / 19°C 59°F / 15°C 78% 30.06 in
(1018 mb)
Calm - 10SM
20:55
Mostly Cloudy
63°F / 17°C 61°F / 16°C 94% 30.06 in
(1018 mb)
Calm - 10SM
20:35
Partly Cloudy
64°F / 18°C 59°F / 15°C 83% 30.06 in
(1018 mb)
SE 3.5 mph
(SE 6 kph)
- 10SM
20:15
Clear
66°F / 19°C 61°F / 16°C 83% 30.06 in
(1018 mb)
Calm - 10SM
19:55
Clear
68°F / 20°C 61°F / 16°C 78% 30.06 in
(1018 mb)
Calm - 10SM
19:35
Clear
72°F / 22°C 63°F / 17°C 73% 30.06 in
(1018 mb)
Calm - 10SM
19:15
Clear
72°F / 22°C 63°F / 17°C 73% 30.06 in
(1018 mb)
SSE 3.5 mph
(SSE 6 kph)
- 10SM
18:55
Clear
73°F / 23°C 63°F / 17°C 69% 30.06 in
(1018 mb)
SSE 4.6 mph
(SSE 7 kph)
- 10SM
18:35
Clear
75°F / 24°C 63°F / 17°C 65% 30.04 in
(1017 mb)
S 4.6 mph
(S 7 kph)
- 10SM
18:15
Partly Cloudy
79°F / 26°C 63°F / 17°C 58% 30.04 in
(1017 mb)
SW 8.1 mph
(SW 13 kph)
- 10SM
17:55
Partly Cloudy
81°F / 27°C 61°F / 16°C 51% 30.04 in
(1017 mb)
S 4.6 mph
(S 7 kph)
- 10SM
17:35
Partly Cloudy
81°F / 27°C 61°F / 16°C 51% 30.04 in
(1017 mb)
S 5.8 mph
(S 9 kph)
- 10SM
17:15
Clear
82°F / 28°C 61°F / 16°C 48% 30.04 in
(1017 mb)
S 5.8 mph
(S 9 kph)
- 10SM
16:55
Clear
84°F / 29°C 61°F / 16°C 45% 30.04 in
(1017 mb)
WNW 4.6 mph
(WNW 7 kph)
- 10SM
16:35
Clear
84°F / 29°C 61°F / 16°C 45% 30.04 in
(1017 mb)
SE 4.6 mph
(SE 7 kph)
- 10SM
16:15
Partly Cloudy
84°F / 29°C 61°F / 16°C 45% 30.04 in
(1017 mb)
Calm - 10SM
15:55
Clear
84°F / 29°C 61°F / 16°C 45% 30.04 in
(1017 mb)
W 3.5 mph
(W 6 kph)
- 10SM
15:35
Clear
84°F / 29°C 61°F / 16°C 45% 30.04 in
(1017 mb)
NE 5.8 mph
(NE 9 kph)
- 10SM
15:15
Clear
84°F / 29°C 61°F / 16°C 45% 30.04 in
(1017 mb)
Calm - 10SM
14:55
Clear
84°F / 29°C 61°F / 16°C 45% 30.06 in
(1018 mb)
N 6.9 mph
(N 11 kph)
- 10SM
14:35
Clear
84°F / 29°C 61°F / 16°C 45% 30.06 in
(1018 mb)
N 8.1 mph
(N 13 kph)
- 10SM
14:15
Clear
88°F / 31°C 61°F / 16°C 40% 30.06 in
(1018 mb)
SSW 4.6 mph
(SSW 7 kph)
- 10SM
13:55
Clear
86°F / 30°C 61°F / 16°C 43% 30.06 in
(1018 mb)
Calm - 10SM
13:35
Clear
84°F / 29°C 61°F / 16°C 45% 30.06 in
(1018 mb)
Calm - 10SM
13:15
Clear
84°F / 29°C 61°F / 16°C 45% 30.06 in
(1018 mb)
W 5.8 mph
(W 9 kph)
- 10SM
12:55
Clear
84°F / 29°C 61°F / 16°C 45% 30.06 in
(1018 mb)
S 6.9 mph
(S 11 kph)
- 10SM
12:35
Clear
82°F / 28°C 61°F / 16°C 48% 30.06 in
(1018 mb)
SSW 4.6 mph
(SSW 7 kph)
- 10SM
12:15
Clear
81°F / 27°C 63°F / 17°C 54% 30.06 in
(1018 mb)
S 5.8 mph
(S 9 kph)
- 10SM
11:55
Clear
81°F / 27°C 63°F / 17°C 54% 30.09 in
(1019 mb)
SE 3.5 mph
(SE 6 kph)
- 10SM
11:35
Clear
81°F / 27°C 63°F / 17°C 54% 30.09 in
(1019 mb)
E 3.5 mph
(E 6 kph)
- 10SM
11:15
Clear
79°F / 26°C 61°F / 16°C 54% 30.09 in
(1019 mb)
SSE 5.8 mph
(SSE 9 kph)
- 10SM
10:55
Clear
79°F / 26°C 61°F / 16°C 54% 30.09 in
(1019 mb)
Calm - 10SM
10:35
Fair
79°F / 26°C 61°F / 16°C 54% 30.09 in
(1019 mb)
S 4.6 mph
(S 7 kph)
-
Time Weather Temperature Dewpoint Humidity Pressure Winds Precip Visibility


Weather for websites

WeatherForYou.com, LLC is not responsible for any damages or problems caused by this service. Current weather conditions are obtained from the closest station including government and personal stations which may have varying degrees of accuracy. Weather forecasts are derived from the NOAA NDFD. Like all things, this site belongs to Jesus Christ... He just trusts me to maintain it. If you have any questions or comments email webmaster@weatherforyou.com

Copyright © 2014, WeatherForYou.com LLC. All rights reserved.